SCP
0 0 0 0 0 0 0 0 0 0 0 0 0 0 0 0 0 0 0 0 0 0 0 0 0 0 0 0 0 0 0 0 0 0 0 0 0 0 0 0 0 0 0 0
0 0 0 0 0 0 0 0 0 0 0 0 0 0 0 0 0 0 0 0 0 0 0 0 0 0 0 0 0 0 0 0 0 0 0 0 0 0 0 0 0 0 0 0
0 0 0 0 0 0 0 0 0 0 0 0 0 0 0 0 0 0 0 0 0 0 0 0 0 0 0 0 0 0 0 0 0 0 0 0 0 0 0 0 0 0 0 0
0 0 0 0 0 0 0 0 0 0 0 0 0 0 0 0 0 0 0 0 0 0 0 0 0 0 0 0 0 0 0 0 0 0 0 0 0 0 0 0 0 0 0 0
0 0 0 0 0 0 0 0 0 0 0 0 0 0 0 0 0 0 0 0 0 0 0 0 0 0 0 0 0 0 0 0 0 0 0 0 0 0 0 0 0 0 0 0
0 0 0 0 0 0 0 0 0 0 0 0 0 0 0 0 0 0 0 0 0 0 0 0 0 0 0 0 0 0 0 0 0 0 0 0 0 0 0 0 0 0 0 0
0 0 0 0 0 0 0 0 0 0 0 0 0 0 0 0 0 0 0 0 0 0 0 0 0 0 0 0 0 0 0 0 0 0 0 0 0 0 0 0 0 0 0 0
0 0 0 0 0 0 0 0 0 0 0 0 0 0 0 0 0 0 0 0 0 0 0 0 0 0 0 0 0 0 0 0 0 0 0 0 0 0 0 0 0 0 0 0
0 0 0 0 0 0 0 0 0 0 0 0 0 0 0 0 0 0 0 0 0 0 0 0 0 0 0 0 0 0 0 0 0 0 0 0 0 0 0 0 0 0 0 0
0 0 0 0 0 0 0 0 0 0 0 0 0 0 0 0 0 0 0 0 0 0 0 0 0 0 0 0 0 0 0 0 0 0 0 0 0 0 0 0 0 0 0 0
0 0 0 0 0 0 0 0 0 0 0 0 0 0 0 0 0 0 0 0 0 0 0 0 0 0 0 0 0 0 0 0 0 0 0 0 0 0 0 0 0 0 0 0
0 0 0 0 0 0 0 0 0 0 0 0 0 0 0 0 0 0 0 0 0 0 0 0 0 0 0 0 0 0 0 0 0 0 0 0 0 0 0 0 0 0 0 0
0 0 0 0 0 0 0 0 0 0 0 0 0 0 0 0 0 0 0 0 0 0 0 0 0 0 0 0 0 0 0 0 0 0 0 0 0 0 0 0 0 0 0 0
0 0 0 0 0 0 0 0 0 0 0 0 0 0 0 0 0 0 0 0 0 0 0 0 0 0 0 0 0 0 0 0 0 0 0 0 0 0 0 0 0 0 0 0
0 0 0 0 0 0 0 0 0 0 0 0 0 0 0 0 0 0 0 0 0 0 0 0 0 0 0 0 0 0 0 0 0 0 0 0 0 0 0 0 0 0 0 0
0 0 0 0 0 0 0 0 0 0 0 0 0 0 0 0 0 0 0 0 0 0 0 0 0 0 0 0 0 0 0 0 0 0 0 0 0 0 0 0 0 0 0 0
0 0 0 0 0 0 0 0 0 0 0 0 0 0 0 0 0 0 0 0 0 0 0 0 0 0 0 0 0 0 0 0 0 0 0 0 0 0 0 0 0 0 0 0
0 0 0 0 0 0 0 0 0 0 0 0 0 0 0 0 0 0 0 0 0 0 0 0 0 0 0 0 0 0 0 0 0 0 0 0 0 0 0 0 0 0 0 0
0 0 0 0 0 0 0 0 0 0 0 0 0 0 0 0 0 0 0 0 0 0 0 0 0 0 0 0 0 0 0 0 0 0 0 0 0 0 0 0 0 0 0 0
0 0 0 0 0 0 0 0 0 0 0 0 0 0 0 0 0 0 0 0 0 0 0 0 0 0 0 0 0 0 0 0 0 0 0 0 0 0 0 0 0 0 0 0
0 0 0 0 0 0 0 0 0 0 0 0 0 0 0 0 0 0 0 0 0 0 0 0 0 0 0 0 0 0 0 0 0 0 0 0 0 0 0 0 0 0 0 0
0 0 0 0 0 0 0 0 0 0 0 0 0 0 0 0 0 0 0 0 0 0 0 0 0 0 0 0 0 0 0 0 0 0 0 0 0 0 0 0 0 0 0 0
0 0 0 0 0 0 0 0 0 0 0 0 0 0 0 0 0 0 0 0 0 0 0 0 0 0 0 0 0 0 0 0 0 0 0 0 0 0 0 0 0 0 0 0
0 0 0 0 0 0 0 0 0 0 0 0 0 0 0 0 0 0 0 0 0 0 0 0 0 0 0 0 0 0 0 0 0 0 0 0 0 0 0 0 0 0 0 0
0 0 0 0 0 0 0 0 0 0 0 0 0 0 0 0 0 0 0 0 0 0 0 0 0 0 0 0 0 0 0 0 0 0 0 0 0 0 0 0 0 0 0 0
0 0 0 0 0 0 0 0 0 0 0 0 0 0 0 0 0 0 0 0 0 0 0 0 0 0 0 0 0 0 0 0 0 0 0 0 0 0 0 0 0 0 0 0
0 0 0 0 0 0 0 0 0 0 0 0 0 0 0 0 0 0 0 0 0 0 0 0 0 0 0 0 0 0 0 0 0 0 0 0 0 0 0 0 0 0 0 0
Wind_Speed
8 7 7 9 10 11 13 11 10 10 10 10 7 6 5 4 4 4 4 3 3 2 2 2 3 3 3 4 3 4 5 5 6 6 6 6 6 6 6 6 7 7 7 7
7 6 7 11 14 14 15 14 15 15 15 10 7 6 6 6 5 5 4 4 4 3 3 3 4 4 4 4 4 4 5 6 6 6 6 6 6 6 6 7 7 7 8 8
6 4 6 11 11 14 11 11 12 14 11 5 6 7 7 6 5 5 5 4 4 4 4 4 4 5 5 5 4 5 6 6 6 6 6 7 6 7 7 7 7 8 8 8
4 4 10 4 1 7 10 11 12 11 9 6 6 5 5 5 5 5 5 5 5 4 5 5 5 5 5 5 5 5 6 6 6 6 7 7 7 7 8 7 7 8 8 9
4 7 11 6 4 6 7 7 8 11 9 6 4 4 4 4 5 5 5 4 4 4 5 5 5 4 5 5 5 6 6 6 6 6 7 7 7 8 7 7 7 8 8 8
6 7 9 2 3 3 4 6 2 6 7 4 3 5 3 1 3 4 4 3 4 4 4 5 5 4 5 6 6 6 6 6 6 6 7 8 8 8 7 7 8 7 8 8
11 10 10 1 4 6 6 2 1 4 4 4 5 5 3 2 3 4 4 4 4 4 4 5 4 4 6 6 7 6 6 7 7 7 7 8 7 7 7 7 7 8 9 8
8 10 10 5 7 7 3 1 2 3 4 5 6 5 5 4 4 4 4 5 4 4 5 5 4 5 6 7 7 6 6 7 7 7 6 6 7 7 6 7 7 8 8 8
10 8 1 6 6 4 2 4 4 4 4 5 6 6 6 6 6 5 5 5 4 5 5 5 5 5 7 7 6 6 7 7 7 7 7 6 6 7 6 6 6 6 6 7
8 10 7 7 7 7 6 6 5 5 5 5 7 7 7 7 6 6 6 5 5 5 6 6 5 5 7 7 6 7 7 7 7 7 7 6 6 5 6 6 6 7 7 7
11 10 7 8 9 8 7 6 7 7 7 7 7 8 8 7 7 6 6 5 5 5 6 7 7 6 6 6 6 7 7 7 7 7 7 7 6 6 7 7 7 8 7 7
11 8 8 8 6 7 7 8 8 8 8 7 7 8 7 7 6 6 6 5 5 6 7 7 7 7 6 6 6 7 7 7 6 5 6 6 6 7 9 11 12 14 15 13
11 8 8 7 6 6 7 8 8 8 8 8 7 7 7 7 6 5 6 6 6 7 7 7 7 7 7 6 6 7 7 7 6 6 6 6 6 7 7 7 10 13 15 16
9 6 7 7 7 6 6 7 7 7 7 6 6 6 6 6 6 6 6 6 6 7 7 7 7 8 7 6 6 7 8 7 7 7 6 7 7 7 7 7 8 7 8 12
9 8 8 6 6 5 4 4 5 6 5 5 4 5 5 6 6 6 6 5 5 6 6 6 7 8 7 6 7 8 7 6 6 7 6 7 7 7 7 8 8 8 7 7
6 6 7 7 7 5 4 4 6 6 6 5 5 6 6 6 6 6 6 5 5 6 7 7 8 9 7 7 7 7 7 9 9 7 7 7 7 7 7 7 8 7 8 7
6 6 6 6 7 7 7 7 7 7 6 7 7 6 5 5 6 7 6 6 6 7 8 8 9 8 7 7 7 7 7 7 9 8 7 7 7 7 7 7 8 8 8 8
8 8 8 7 7 7 7 7 7 7 7 7 6 5 6 7 8 8 7 7 7 8 9 9 9 8 8 8 7 6 7 7 7 7 7 7 7 7 7 8 8 9 8 8
7 8 8 8 7 7 7 7 7 7 6 6 6 7 8 8 8 8 8 8 9 10 9 8 9 9 9 9 8 6 7 8 8 8 7 9 9 8 8 8 8 8 8 7
5 6 6 6 6 6 7 7 6 6 6 6 7 8 9 9 8 8 8 9 9 8 8 9 9 9 9 9 8 7 8 8 9 8 8 7 8 8 8 8 8 8 8 7
5 5 5 5 5 6 6 7 6 7 7 7 7 9 9 9 9 8 8 9 10 8 9 10 8 8 8 8 8 7 8 8 8 8 8 8 8 8 8 8 8 7 7 7
4 4 5 5 5 6 6 6 6 7 8 8 8 9 9 10 10 9 10 9 10 9 8 7 8 9 10 10 8 8 8 9 8 8 8 8 8 8 8 8 7 7 7 7
5 5 6 7 7 7 7 7 7 8 9 9 10 10 10 10 8 8 10 8 7 9 8 8 10 13 14 10 8 8 9 9 9 8 8 8 8 8 8 8 7 7 7 7
6 7 7 7 7 7 9 10 8 7 9 9 10 10 10 9 8 8 9 10 12 12 9 11 14 15 15 9 8 8 8 8 8 8 8 8 7 7 7 8 7 7 7 7
7 7 8 7 8 8 9 9 8 9 9 8 10 10 9 8 9 9 8 9 12 12 10 11 14 15 11 8 8 8 8 8 8 7 7 7 7 7 7 7 7 7 6 6
9 8 8 9 8 8 7 7 7 7 7 8 8 8 7 7 8 9 8 9 11 12 10 8 9 9 8 8 8 9 8 8 8 8 8 7 8 8 7 7 8 7 6 6
8 8 7 7 8 7 7 7 8 8 8 8 9 8 7 7 7 8 9 9 8 8 8 7 7 7 7 8 8 8 7 7 7 7 7 7 7 7 7 8 6 6 6 5
Wind_Direction
264 271 264 256 243 222 220 230 243 256 261 267 265 257 252 249 244 240 237 234 235 248 266 281 288 287 287 285 281 275 271 269 270 273 270 265 262 259 256 253 252 253 253 251
266 255 258 263 252 238 236 239 245 260 267 271 270 263 258 253 244 240 242 243 250 262 275 284 293 297 293 289 286 279 273 273 277 275 271 265 263 263 259 258 257 255 253 253
264 280 279 258 238 220 220 223 227 240 252 257 254 252 253 251 242 241 244 250 257 268 277 283 288 290 289 292 293 282 277 280 281 277 272 268 266 263 260 260 259 258 257 256
268 267 246 250 168 216 226 238 232 246 259 259 264 276 270 254 248 247 248 256 264 272 280 285 285 285 288 288 286 283 282 283 283 279 276 274 269 265 264 263 261 260 259 258
233 254 268 265 210 190 211 249 234 238 251 261 277 273 255 246 248 253 257 265 271 276 281 282 281 283 282 280 281 281 283 285 285 280 276 273 270 269 269 266 263 261 261 259
223 243 253 256 141 171 201 249 223 222 239 248 220 251 263 246 249 260 268 273 280 284 283 280 284 285 277 278 280 282 288 291 290 281 275 274 273 273 270 265 265 267 263 260
228 242 261 259 146 165 217 261 138 220 231 221 229 268 318 290 270 271 278 280 282 280 279 284 292 284 278 280 281 289 293 290 287 281 276 275 275 271 269 266 267 265 264 262
209 227 245 149 157 200 243 48 208 227 230 231 249 273 276 267 268 274 278 277 277 276 281 287 286 279 279 280 286 291 288 286 286 285 281 275 272 270 266 264 265 265 265 266
209 227 308 171 201 233 248 244 240 239 240 239 253 263 267 266 268 270 272 273 272 272 282 285 277 271 277 285 292 288 284 284 286 286 280 271 267 268 267 263 263 267 266 268
246 254 252 244 248 250 247 246 249 248 249 248 256 263 265 267 269 271 272 273 273 271 276 283 283 275 275 285 286 280 280 283 286 285 282 276 268 262 262 262 263 264 266 268
247 260 269 254 244 246 243 246 256 258 255 250 254 260 264 267 268 269 273 275 269 265 271 280 287 284 282 282 279 276 278 279 281 279 280 279 272 265 262 261 260 266 269 268
245 244 242 258 252 243 242 247 251 256 259 256 252 260 263 263 263 265 270 274 270 268 272 279 285 286 287 282 274 275 279 281 280 281 281 279 280 278 253 252 262 259 260 263
257 268 265 272 264 247 245 250 254 251 253 257 257 255 256 261 260 262 266 266 266 270 275 280 283 284 286 282 273 271 275 281 282 279 278 278 279 282 288 275 258 259 261 262
251 258 260 254 254 255 256 256 255 254 252 251 253 253 252 256 259 259 263 267 271 273 275 277 280 282 286 282 273 272 275 274 273 275 274 274 273 274 276 282 288 283 268 264
243 237 245 260 264 264 260 256 254 256 258 257 254 251 249 252 257 263 270 273 274 274 276 278 280 283 287 282 276 276 276 275 275 275 272 271 271 270 270 270 273 279 283 276
245 245 246 251 254 254 250 245 248 256 259 260 259 256 253 256 263 268 270 267 267 273 280 283 281 283 287 283 279 276 273 269 270 274 273 269 266 264 265 266 269 272 273 276
234 241 239 244 247 247 242 241 246 253 257 257 258 259 258 260 266 268 270 268 265 270 274 274 275 280 280 276 273 273 275 275 269 269 267 266 266 264 265 266 267 268 269 269
234 243 244 246 249 249 251 251 250 252 253 258 261 257 252 253 260 268 274 279 278 277 273 268 271 275 275 273 269 269 271 274 273 271 271 269 268 267 266 266 267 268 272 271
237 244 247 245 245 246 248 250 251 252 253 250 247 250 254 257 260 267 273 274 274 278 279 273 269 271 274 273 271 268 268 271 272 270 269 271 270 267 265 265 265 266 269 269
243 245 246 249 246 239 243 249 252 253 252 249 251 258 262 264 264 265 266 266 263 266 276 281 280 277 275 275 271 268 268 270 272 274 273 270 269 269 268 266 266 267 267 266
252 253 252 253 258 252 246 248 250 255 259 253 250 255 262 267 268 265 265 270 274 268 269 271 270 270 271 273 272 269 268 269 270 271 271 271 271 271 269 267 267 267 267 267
265 261 261 262 263 267 265 258 253 256 261 261 258 258 261 265 267 265 258 259 271 275 274 272 268 266 269 276 271 268 268 269 269 269 268 268 269 270 270 269 268 267 266 266
263 262 263 264 265 270 275 269 259 256 257 258 259 259 259 261 263 265 271 268 267 270 270 269 269 272 278 276 270 268 268 268 267 267 267 266 266 266 268 268 267 266 266 265
267 266 265 268 269 269 270 271 266 261 260 263 261 260 260 265 265 256 258 272 275 275 272 271 274 277 279 273 269 267 267 266 266 266 266 266 265 264 265 265 265 265 264 264
265 266 267 266 265 264 266 271 273 270 267 265 266 264 258 252 258 269 271 270 271 273 273 274 275 277 274 269 267 266 266 265 265 267 265 265 265 265 264 264 263 264 264 263
264 264 265 262 262 266 268 267 267 269 269 270 271 270 266 260 258 263 267 269 269 271 270 271 272 272 267 266 266 266 266 269 270 266 265 265 265 265 264 264 264 262 261 260
267 266 267 267 264 258 257 258 261 264 264 265 272 275 274 271 268 267 268 270 271 270 269 268 268 267 267 266 266 266 265 265 265 265 264 263 262 263 263 263 263 261 259 258